Project,Study,Ord_Occ,Event_Num,Cast_ID,Date_Time_UTC,Date_Time_PST,Lat_Dec,Lon_Dec,Sta_ID,Line,Sta,Depth,Pressure,PrQ,Temp1,Temp1Q,Temp2,Temp2Q,TempAve,Salt1,Salt1Q,Salt1_Corr,Salt2,Salt2Q,Salt2_Corr,SaltAve_Corr,Ox1,Ox1Q,Ox1_CruiseCorr,Ox1_StaCorr,Ox2,Ox2Q,Ox2_CruiseCorr,Ox2_StaCorr,OxAve_StaCorr,Ox1uM,Ox1uM_CruiseCorr,Ox1uM_StaCorr,Ox2uM,Ox2uM_CruiseCorr,Ox2uM_StaCorr,OxAveuM_StaCorr,FluorV,FluorQ,EstChl_CruiseCorr,EstChl_StaCorr,ISUSV,ISUSQ,EstNO3_CruiseCorr,EstNO3_StaCorr,SigThetaTS1,SigThetaTS1Q,SigThetaTS2,SigThetaTS2Q,BAT,XMiss,TransQ,pH,pHQ,SPAR,SPARQ,PAR,PARQ,PoT1,PoT2,DynHt,SVA,OxSat1,OxSat2,BTL_Depth,BTL_Temp,SaltB,OxB,OxBuM,Chl-a,Phaeo,NO3,NO2,NH4,PO4,SIL
CalCOFI,2007SR,013,14,2007_013u,15-Jul-2020 13:17:38,15-Jul-2020 05:17:38,31.18044,-120.91952,093.3 080.0,093.3,080.0,516.000,520.239,,6.1232,,6.1224,,6.1228,34.2708,,34.2710,34.2724,,34.2740,34.2725,0.3729,,0.3719,0.3423,,,,,,16.215,16.4387,9.1141,,,,,0.0318,,,,1.7766,,39.6471,38.977,26.9666,,26.9680,,0.6254,85.5279,,7.571,,2.2851E+01,,1.0000E-12,,6.0774,6.0765,1.0451,,5.386,,,,,,,,,,,,,
CalCOFI,2007SR,013,14,2007_013u,15-Jul-2020 13:17:41,15-Jul-2020 05:17:41,31.18044,-120.91952,093.3 080.0,093.3,080.0,515.000,519.229,,6.1216,,6.1215,,6.1216,34.2708,,34.2710,34.2722,,34.2738,34.2724,0.3729,,0.3719,0.3423,,,,,,16.214,16.4377,9.1131,,,,,0.0319,,,,1.7784,,39.6976,39.026,26.9668,,26.9679,,0.6258,85.5185,,7.571,,2.2851E+01,,1.0000E-12,,6.0758,6.0757,1.0451,,5.386,,515,6.122,34.2650,0.368,16.07,,,39.42,0.00,0.00,3.08,74.90
CalCOFI,2007SR,013,14,2007_013u,15-Jul-2020 13:18:17,15-Jul-2020 05:18:17,31.18042,-120.91952,093.3 080.0,093.3,080.0,514.000,518.220,,6.1172,,6.1169,,6.1171,34.2713,,34.2715,34.2726,,34.2742,34.2729,0.3741,,0.3732,0.3436,,,,,,16.270,16.4962,9.1709,,,,,0.0318,,,,1.7726,,39.5348,38.867,26.9677,,26.9688,,0.6253,85.5296,,7.571,,2.4830E+01,,1.0000E-12,,6.0716,6.0713,1.0495,,5.404,,,,,,,,,,,,,
CalCOFI,2007SR,013,14,2007_013u,15-Jul-2020 13:18:31,15-Jul-2020 05:18:31,31.18044,-120.91952,093.3 080.0,093.3,080.0,513.000,517.210,,6.1348,,6.1332,,6.1340,34.2721,,34.2723,34.2737,,34.2753,34.2738,0.3729,,0.3719,0.3423,,,,,,16.214,16.4377,9.1131,,,,,0.0305,,,,1.7753,,39.6106,38.941,26.9662,,26.9676,,0.6250,85.5357,,7.571,,2.4754E+01,,1.0000E-12,,6.0892,6.0876,1.0506,,5.388,,,,,,,,,,,,,
CalCOFI,2007SR,013,14,2007_013u,15-Jul-2020 13:18:32,15-Jul-2020 05:18:32,31.18044,-120.91952,093.3 080.0,093.3,080.0,512.000,516.201,,6.1596,,6.1593,,6.1595,34.2732,,34.2734,34.2749,,34.2765,34.2750,0.3726,,0.3716,0.3420,,,,,,16.202,16.4252,9.1007,,,,,0.0318,,,,1.7755,,39.6162,38.947,26.9639,,26.9652,,0.6254,85.5272,,7.571,,2.4756E+01,,1.0000E-12,,6.1140,6.1137,1.0506,,5.387,,,,,,,,,,,,,
CalCOFI,2007SR,013,14,2007_013u,15-Jul-2020 13:18:34,15-Jul-2020 05:18:34,31.18044,-120.91952,093.3 080.0,093.3,080.0,511.000,515.191,,6.1709,,6.1726,,6.1718,34.2739,,34.2741,34.2754,,34.2770,34.2756,0.3822,,0.3817,0.3522,,,,,,16.621,16.8626,9.5337,,,,,0.0314,,,,1.7752,,39.6078,38.939,26.9629,,26.9639,,0.6254,85.5269,,7.571,,2.4756E+01,,1.0000E-12,,6.1253,6.1271,1.0506,,5.527,,,,,,,,,,,,,
CalCOFI,2007SR,013,14,2007_013u,15-Jul-2020 13:18:35,15-Jul-2020 05:18:35,31.18044,-120.91952,093.3 080.0,093.3,080.0,510.000,514.182,,6.1615,,6.1584,,6.1600,34.2690,,34.2692,34.2685,,34.2701,34.2697,0.3952,,0.3952,0.3659,,,,,,17.184,17.4503,10.1156,,,,,0.0312,,,,1.7742,,39.5797,38.911,26.9602,,26.9602,,0.6254,85.5277,,7.572,,2.4756E+01,,1.0000E-12,,6.1161,6.1130,1.0506,,5.713,,,,,,,,,,,,,
CalCOFI,2007SR,013,14,2007_013u,15-Jul-2020 13:18:36,15-Jul-2020 05:18:36,31.18044,-120.91952,093.3 080.0,093.3,080.0,509.000,513.172,,6.1365,,6.1367,,6.1366,34.2618,,34.2620,34.2625,,34.2641,34.2631,0.3978,,0.3980,0.3687,1.9182,,0.6381,0.5965,0.4826,17.300,17.5714,10.2354,83.418,,26.2831,18.2593,0.0316,,,,1.7729,,39.5432,38.876,26.9577,,26.9583,,0.6250,85.5355,,7.571,,2.4756E+01,,1.0000E-12,,6.0912,6.0915,1.0506,,5.748,27.717,,,,,,,,,,,,
CalCOFI,2007SR,013,14,2007_013u,15-Jul-2020 13:18:37,15-Jul-2020 05:18:37,31.18044,-120.91952,093.3 080.0,093.3,080.0,508.000,512.163,,6.1342,,6.1343,,6.1343,34.2599,,34.2601,34.2609,,34.2625,34.2613,0.4020,,0.4023,0.3731,1.9165,,0.6341,0.5920,0.4826,17.481,17.7603,10.4225,83.342,,26.0961,18.2593,0.0308,,,,1.7719,,39.5151,38.848,26.9566,,26.9573,,0.6249,85.5382,,7.571,,2.4756E+01,,1.0000E-12,,6.0891,6.0892,1.0506,,5.808,27.690,,,,,,,,,,,,
CalCOFI,2007SR,013,14,2007_013u,15-Jul-2020 13:18:38,15-Jul-2020 05:18:38,31.18044,-120.91952,093.3 080.0,093.3,080.0,507.000,511.154,,6.1352,,6.1355,,6.1354,34.2593,,34.2595,34.2605,,34.2621,34.2608,0.4026,,0.4030,0.3738,1.9137,,0.6274,0.5845,0.4792,17.507,17.7875,10.4494,83.222,,25.8009,18.1252,0.0312,,,,1.7710,,39.4898,38.823,26.9559,,26.9568,,0.6248,85.5398,,7.572,,2.4325E+01,,1.0000E-12,,6.0902,6.0905,1.0506,,5.817,27.651,,,,,,,,,,,,
CalCOFI,2007SR,013,14,2007_013u,15-Jul-2020 13:18:39,15-Jul-2020 05:18:39,31.18044,-120.91952,093.3 080.0,093.3,080.0,506.000,510.144,,6.1372,,6.1376,,6.1374,34.2590,,34.2592,34.2603,,34.2619,34.2606,0.4015,,0.4018,0.3726,1.9139,,0.6279,0.5851,0.4789,17.458,17.7363,10.3987,83.232,,25.8255,18.1121,0.0323,,,,1.7702,,39.4674,38.802,26.9554,,26.9564,,0.6243,85.5504,,7.572,,2.4751E+01,,1.0000E-12,,6.0922,6.0927,1.0506,,5.801,27.656,,,,,,,,,,,,
CalCOFI,2007SR,013,14,2007_013u,15-Jul-2020 13:18:40,15-Jul-2020 05:18:40,31.18044,-120.91952,093.3 080.0,093.3,080.0,505.000,509.135,,6.1429,,6.1436,,6.1433,34.2595,,34.2597,34.2608,,34.2624,34.2611,0.4016,,0.4019,0.3727,1.9056,,0.6080,0.5630,0.4679,17.466,17.7447,10.4070,82.870,,24.9348,17.6709,0.0314,,,,1.7695,,39.4477,38.782,26.9551,,26.9560,,0.6243,85.5495,,7.572,,2.4756E+01,,1.0000E-12,,6.0980,6.0987,1.0506,,5.804,27.539,,,,,,,,,,,,
CalCOFI,2007SR,013,14,2007_013u,15-Jul-2020 13:18:41,15-Jul-2020 05:18:41,31.18044,-120.91952,093.3 080.0,093.3,080.0,504.000,508.125,,6.1522,,6.1525,,6.1524,34.2596,,34.2598,34.2609,,34.2625,34.2612,0.4004,,0.4007,0.3714,1.9099,,0.6183,0.5744,0.4729,17.410,17.6862,10.3491,83.058,,25.3973,17.8732,0.0317,,,,1.7689,,39.4309,38.766,26.9539,,26.9549,,0.6247,85.5421,,7.572,,2.4756E+01,,1.0000E-12,,6.1074,6.1077,1.0506,,5.787,27.607,,,,,,,,,,,,
CalCOFI,2007SR,013,14,2007_013u,15-Jul-2020 13:18:42,15-Jul-2020 05:18:42,31.18044,-120.91952,093.3 080.0,093.3,080.0,503.000,507.116,,6.1563,,6.1571,,6.1567,34.2600,,34.2602,34.2613,,34.2629,34.2616,0.4063,,0.4068,0.3777,1.9096,,0.6176,0.5736,0.4757,17.669,17.9566,10.6168,83.046,,25.3678,17.9923,0.0317,,,,1.7688,,39.4281,38.763,26.9537,,26.9547,,0.6249,85.5387,,7.573,,2.4756E+01,,1.0000E-12,,6.1116,6.1123,1.0506,,5.874,27.607,,,,,,,,,,,,
CalCOFI,2007SR,013,14,2007_013u,15-Jul-2020 13:18:43,15-Jul-2020 05:18:43,31.18044,-120.91952,093.3 080.0,093.3,080.0,502.000,506.106,,6.1562,,6.1557,,6.1560,34.2581,,34.2583,34.2589,,34.2605,34.2594,0.4040,,0.4044,0.3752,1.9086,,0.6152,0.5710,0.4731,17.570,17.8532,10.5145,83.002,,25.2595,17.8870,0.0318,,,,1.7684,,39.4168,38.752,26.9522,,26.9529,,0.6244,85.5485,,7.573,,2.4756E+01,,1.0000E-12,,6.1116,6.1111,1.0506,,5.840,27.590,,,,,,,,,,,,
CalCOFI,2007SR,013,14,2007_013u,15-Jul-2020 13:18:44,15-Jul-2020 05:18:44,31.18044,-120.91952,093.3 080.0,093.3,080.0,501.000,505.097,,6.1538,,6.1543,,6.1541,34.2573,,34.2575,34.2585,,34.2601,34.2588,0.4078,,0.4084,0.3793,1.8992,,0.5928,0.5459,0.4626,17.736,18.0265,10.6860,82.593,,24.2532,17.4696,0.0326,,,,1.7676,,39.3944,38.730,26.9519,,26.9528,,0.6252,85.5302,,7.572,,2.4756E+01,,1.0000E-12,,6.1093,6.1097,1.0506,,5.895,27.454,,,,,,,,,,,,
CalCOFI,2007SR,013,14,2007_013u,15-Jul-2020 13:18:45,15-Jul-2020 05:18:45,31.18044,-120.91952,093.3 080.0,093.3,080.0,500.000,504.088,,6.1587,,6.1591,,6.1589,34.2576,,34.2578,34.2589,,34.2605,34.2592,0.4094,,0.4101,0.3810,1.9011,,0.5973,0.5510,0.4660,17.802,18.0954,10.7542,82.673,,24.4500,17.6021,0.0316,,,,1.7666,,39.3663,38.703,26.9515,,26.9525,,0.6248,85.5397,,7.574,,2.4756E+01,,1.0000E-12,,6.1142,6.1146,1.0506,,5.918,27.483,,,,,,,,,,,,
CalCOFI,2007SR,013,14,2007_013u,15-Jul-2020 13:18:46,15-Jul-2020 05:18:46,31.18044,-120.91952,093.3 080.0,093.3,080.0,499.000,503.078,,6.1643,,6.1653,,6.1648,34.2580,,34.2582,34.2592,,34.2608,34.2595,0.4105,,0.4112,0.3821,1.9038,,0.6037,0.5582,0.4702,17.852,18.1476,10.8059,82.791,,24.7404,17.7732,0.0319,,,,1.7655,,39.3354,38.673,26.9511,,26.9519,,0.6244,85.5475,,7.574,,2.4756E+01,,1.0000E-12,,6.1199,6.1209,1.0506,,5.935,27.527,,,,,,,,,,,,
CalCOFI,2007SR,013,14,2007_013u,15-Jul-2020 13:18:47,15-Jul-2020 05:18:47,31.18044,-120.91952,093.3 080.0,093.3,080.0,498.000,502.069,,6.1734,,6.1751,,6.1743,34.2585,,34.2587,34.2598,,34.2614,34.2601,0.4226,,0.4239,0.3949,1.9031,,0.6021,0.5563,0.4756,18.380,18.6988,11.3516,82.760,,24.6641,18.0079,0.0318,,,,1.7641,,39.2961,38.634,26.9503,,26.9511,,0.6243,85.5505,,7.574,,2.4756E+01,,1.0000E-12,,6.1291,6.1307,1.0506,,6.112,27.523,,,,,,,,,,,,
CalCOFI,2007SR,013,14,2007_013u,15-Jul-2020 13:18:48,15-Jul-2020 05:18:48,31.18044,-120.91952,093.3 080.0,093.3,080.0,497.000,501.059,,6.1774,,6.1770,,6.1772,34.2541,,34.2543,34.2550,,34.2566,34.2555,0.4243,,0.4257,0.3967,1.9007,,0.5963,0.5499,0.4733,18.452,18.7739,11.4260,82.657,,24.4107,17.9184,0.0314,,,,1.7630,,39.2652,38.604,26.9463,,26.9471,,0.6243,85.5505,,7.575,,2.4756E+01,,1.0000E-12,,6.1332,6.1328,1.0506,,6.136,27.489,,,,,,,,,,,,
CalCOFI,2007SR,013,14,2007_013u,15-Jul-2020 13:18:49,15-Jul-2020 05:18:49,31.18044,-120.91952,093.3 080.0,093.3,080.0,496.000,500.050,,6.1865,,6.1878,,6.1872,34.2519,,34.2521,34.2530,,34.2546,34.2534,0.4269,,0.4284,0.3995,1.8985,,0.5911,0.5440,0.4718,18.567,18.8940,11.5449,82.561,,24.1745,17.8597,0.0320,,,,1.7623,,39.2455,38.585,26.9434,,26.9441,,0.6245,85.5462,,7.574,,2.4756E+01,,1.0000E-12,,6.1423,6.1436,1.0506,,6.176,27.463,,,,,,,,,,,,
CalCOFI,2007SR,013,14,2007_013u,15-Jul-2020 13:18:50,15-Jul-2020 05:18:50,31.18044,-120.91952,093.3 080.0,093.3,080.0,495.000,499.041,,6.1927,,6.1934,,6.1931,34.2511,,34.2513,34.2523,,34.2539,34.2526,0.4275,,0.4290,0.4001,1.8999,,0.5944,0.5478,0.4740,18.593,18.9211,11.5717,82.623,,24.3270,17.9494,0.0320,,,,1.7618,,39.2315,38.571,26.9420,,26.9428,,0.6243,85.5505,,7.575,,2.4756E+01,,1.0000E-12,,6.1486,6.1493,1.0506,,6.185,27.487,,,,,,,,,,,,
CalCOFI,2007SR,013,14,2007_013u,15-Jul-2020 13:18:51,15-Jul-2020 05:18:51,31.18044,-120.91953,093.3 080.0,093.3,080.0,494.000,498.031,,6.1962,,6.1964,,6.1963,34.2486,,34.2488,34.2501,,34.2517,34.2503,0.4344,,0.4362,0.4074,1.8937,,0.5796,0.5313,0.4694,18.890,19.2312,11.8787,82.353,,23.6627,17.7707,0.0319,,,,1.7611,,39.2118,38.552,26.9395,,26.9407,,0.6243,85.5505,,7.575,,2.4756E+01,,1.0000E-12,,6.1521,6.1523,1.0506,,6.284,27.399,,,,,,,,,,,,
CalCOFI,2007SR,013,14,2007_013u,15-Jul-2020 13:18:52,15-Jul-2020 05:18:52,31.18044,-120.91954,093.3 080.0,093.3,080.0,493.000,497.022,,6.1884,,6.1882,,6.1883,34.2439,,34.2441,34.2444,,34.2460,34.2451,0.4356,,0.4375,0.4087,1.8949,,0.5825,0.5344,0.4716,18.943,19.2865,11.9334,82.405,,23.7906,17.8620,0.0317,,,,1.7605,,39.1950,38.535,26.9368,,26.9372,,0.6243,85.5505,,7.575,,2.4756E+01,,1.0000E-12,,6.1445,6.1443,1.0506,,6.301,27.410,,,,,,,,,,,,
CalCOFI,2007SR,013,14,2007_013u,15-Jul-2020 13:18:54,15-Jul-2020 05:18:54,31.18044,-120.91952,093.3 080.0,093.3,080.0,492.000,496.013,,6.1874,,6.1880,,6.1877,34.2414,,34.2416,34.2427,,34.2443,34.2430,0.4393,,0.4413,0.4126,1.8962,,0.5856,0.5379,0.4753,19.106,19.4567,12.1019,82.462,,23.9309,18.0164,0.0318,,,,1.7600,,39.1810,38.522,26.9350,,26.9359,,0.6243,85.5505,,7.576,,2.4756E+01,,1.0000E-12,,6.1436,6.1442,1.0506,,6.355,27.428,,,,,,,,,,,,
CalCOFI,2007SR,013,14,2007_013u,15-Jul-2020 13:18:55,15-Jul-2020 05:18:55,31.18044,-120.91952,093.3 080.0,093.3,080.0,491.000,495.003,,6.1979,,6.1988,,6.1984,34.2412,,34.2414,34.2423,,34.2439,34.2427,0.4414,,0.4435,0.4148,1.8954,,0.5837,0.5358,0.4753,19.195,19.5496,12.1939,82.427,,23.8448,18.0194,0.0318,,,,1.7595,,39.1669,38.508,26.9334,,26.9342,,0.6243,85.5505,,7.576,,2.4756E+01,,1.0000E-12,,6.1541,6.1550,1.0506,,6.386,27.423,,,,,,,,,,,,
CalCOFI,2007SR,013,14,2007_013u,15-Jul-2020 13:18:56,15-Jul-2020 05:18:56,31.18044,-120.91952,093.3 080.0,093.3,080.0,490.000,493.994,,6.2119,,6.2118,,6.2119,34.2402,,34.2404,34.2416,,34.2432,34.2418,0.4450,,0.4473,0.4187,1.8945,,0.5815,0.5334,0.4761,19.351,19.7124,12.3551,82.389,,23.7513,18.0532,0.0321,,,,1.7591,,39.1557,38.497,26.9308,,26.9320,,0.6243,85.5505,,7.576,,2.4756E+01,,1.0000E-12,,6.1682,6.1681,1.0506,,6.440,27.419,,,,,,,,,,,,
CalCOFI,2007SR,013,14,2007_013u,15-Jul-2020 13:18:56,15-Jul-2020 05:18:56,31.18044,-120.91952,093.3 080.0,093.3,080.0,489.000,492.985,,6.2245,,6.2253,,6.2249,34.2395,,34.2397,34.2408,,34.2424,34.2411,0.4483,,0.4507,0.4221,1.8936,,0.5794,0.5310,0.4766,19.496,19.8638,12.5050,82.349,,23.6529,18.0790,0.0323,,,,1.7586,,39.1416,38.483,26.9287,,26.9296,,0.6243,85.5505,,7.576,,2.4756E+01,,1.0000E-12,,6.1808,6.1816,1.0506,,6.490,27.414,,,,,,,,,,,,
CalCOFI,2007SR,013,14,2007_013u,15-Jul-2020 13:18:57,15-Jul-2020 05:18:57,31.18044,-120.91952,093.3 080.0,093.3,080.0,488.000,491.975,,6.2303,,6.2305,,6.2304,34.2389,,34.2391,34.2402,,34.2418,34.2405,0.4526,,0.4552,0.4267,1.8927,,0.5772,0.5286,0.4777,19.685,20.0611,12.7003,82.313,,23.5643,18.1323,0.0320,,,,1.7578,,39.1192,38.461,26.9275,,26.9284,,0.6243,85.5505,,7.576,,2.4756E+01,,1.0000E-12,,6.1867,6.1869,1.0506,,6.554,27.405,,,,,,,,,,,,
CalCOFI,2007SR,013,14,2007_013u,15-Jul-2020 13:18:58,15-Jul-2020 05:18:58,31.18044,-120.91952,093.3 080.0,093.3,080.0,487.000,490.966,,6.2327,,6.2329,,6.2328,34.2368,,34.2370,34.2378,,34.2394,34.2382,0.4586,,0.4615,0.4330,1.8906,,0.5722,0.5230,0.4780,19.945,20.3325,12.9690,82.219,,23.3330,18.1510,0.0321,,,,1.7573,,39.1051,38.448,26.9255,,26.9262,,0.6243,85.5505,,7.576,,2.4756E+01,,1.0000E-12,,6.1891,6.1894,1.0506,,6.641,27.375,,,,,,,,,,,,
CalCOFI,2007SR,013,14,2007_013u,15-Jul-2020 13:18:59,15-Jul-2020 05:18:59,31.18044,-120.91952,093.3 080.0,093.3,080.0,486.000,489.956,,6.2378,,6.2382,,6.2380,34.2354,,34.2356,34.2366,,34.2382,34.2369,0.4647,,0.4679,0.4395,1.8867,,0.5629,0.5126,0.4761,20.208,20.6070,13.2408,82.050,,22.9172,18.0790,0.0317,,,,1.7568,,39.0911,38.434,26.9236,,26.9246,,0.6243,85.5505,,7.576,,2.4756E+01,,1.0000E-12,,6.1944,6.1947,1.0506,,6.729,27.322,,,,,,,,,,,,
CalCOFI,2007SR,013,14,2007_013u,15-Jul-2020 13:19:00,15-Jul-2020 05:19:00,31.18044,-120.91953,093.3 080.0,093.3,080.0,485.000,488.947,,6.2448,,6.2448,,6.2448,34.2342,,34.2344,34.2354,,34.2370,34.2357,0.4669,,0.4702,0.4418,1.8901,,0.5710,0.5217,0.4818,20.304,20.7072,13.3400,82.197,,23.2789,18.3095,0.0313,,,,1.7564,,39.0799,38.423,26.9218,,26.9228,,0.6243,85.5505,,7.575,,2.4756E+01,,1.0000E-12,,6.2014,6.2014,1.0506,,6.762,27.375,,,,,,,,,,,,
CalCOFI,2007SR,013,14,2007_013u,15-Jul-2020 13:19:01,15-Jul-2020 05:19:01,31.18044,-120.91954,093.3 080.0,093.3,080.0,484.000,487.938,,6.2485,,6.2489,,6.2487,34.2328,,34.2330,34.2339,,34.2355,34.2343,0.4701,,0.4735,0.4452,1.8888,,0.5679,0.5182,0.4817,20.443,20.8523,13.4837,82.143,,23.1460,18.3149,0.0317,,,,1.7563,,39.0771,38.420,26.9202,,26.9210,,0.6243,85.5505,,7.575,,2.4756E+01,,1.0000E-12,,6.2052,6.2056,1.0506,,6.809,27.359,,,,,,,,,,,,
CalCOFI,2007SR,013,14,2007_013u,15-Jul-2020 13:19:02,15-Jul-2020 05:19:02,31.18044,-120.91954,093.3 080.0,093.3,080.0,483.000,486.929,,6.2530,,6.2537,,6.2534,34.2319,,34.2321,34.2330,,34.2346,34.2334,0.4695,,0.4729,0.4446,1.8884,,0.5670,0.5171,0.4809,20.418,20.8263,13.4578,82.124,,23.0992,18.2785,0.0313,,,,1.7562,,39.0743,38.417,26.9189,,26.9197,,0.6243,85.5505,,7.575,,2.4756E+01,,1.0000E-12,,6.2097,6.2105,1.0506,,6.801,27.355,,,,,,,,,,,,
CalCOFI,2007SR,013,14,2007_013u,15-Jul-2020 13:19:03,15-Jul-2020 05:19:03,31.18044,-120.91952,093.3 080.0,093.3,080.0,482.000,485.919,,6.2596,,6.2602,,6.2599,34.2316,,34.2318,34.2327,,34.2343,34.2331,0.4757,,0.4794,0.4512,1.8896,,0.5698,0.5203,0.4858,20.688,21.1081,13.7369,82.179,,23.2346,18.4858,0.0319,,,,1.7561,,39.0714,38.415,26.9179,,26.9187,,0.6243,85.5505,,7.575,,2.4756E+01,,1.0000E-12,,6.2164,6.2170,1.0506,,6.892,27.378,,,,,,,,,,,,
CalCOFI,2007SR,013,14,2007_013u,15-Jul-2020 13:19:05,15-Jul-2020 05:19:05,31.18044,-120.91952,093.3 080.0,093.3,080.0,481.000,484.910,,6.2656,,6.2654,,6.2655,34.2315,,34.2317,34.2328,,34.2344,34.2331,0.4778,,0.4816,0.4534,1.8825,,0.5529,0.5014,0.4774,20.777,21.2010,13.8288,81.868,,22.4694,18.1491,0.0316,,,,1.7557,,39.0602,38.404,26.9170,,26.9180,,0.6243,85.5505,,7.575,,2.4756E+01,,1.0000E-12,,6.2225,6.2223,1.0506,,6.923,27.277,,,,,,,,,,,,
CalCOFI,2007SR,013,14,2007_013u,15-Jul-2020 13:19:06,15-Jul-2020 05:19:06,31.18044,-120.91952,093.3 080.0,093.3,080.0,480.000,483.901,,6.2755,,6.2759,,6.2757,34.2303,,34.2305,34.2317,,34.2333,34.2319,0.4836,,0.4876,0.4595,1.8933,,0.5787,0.5302,0.4949,21.033,21.4682,14.0934,82.340,,23.6307,18.8621,0.0316,,,,1.7551,,39.0434,38.387,26.9148,,26.9158,,0.6243,85.5505,,7.575,,2.4756E+01,,1.0000E-12,,6.2325,6.2329,1.0506,,7.009,27.441,,,,,,,,,,,,
CalCOFI,2007SR,013,14,2007_013u,15-Jul-2020 13:19:07,15-Jul-2020 05:19:07,31.18044,-120.91952,093.3 080.0,093.3,080.0,479.000,482.891,,6.2899,,6.2912,,6.2906,34.2287,,34.2289,34.2298,,34.2314,34.2302,0.4855,,0.4896,0.4615,1.8795,,0.5457,0.4934,0.4775,21.115,21.5538,14.1782,81.741,,22.1569,18.1676,0.0314,,,,1.7543,,39.0209,38.365,26.9117,,26.9124,,0.6243,85.5505,,7.575,,2.4756E+01,,1.0000E-12,,6.2469,6.2482,1.0506,,7.039,27.251,,,,,,,,,,,,
CalCOFI,2007SR,013,14,2007_013u,15-Jul-2020 13:19:08,15-Jul-2020 05:19:08,31.18044,-120.91952,093.3 080.0,093.3,080.0,478.000,481.882,,6.2969,,6.2972,,6.2971,34.2281,,34.2283,34.2293,,34.2309,34.2296,0.4873,,0.4915,0.4634,1.8795,,0.5457,0.4934,0.4784,21.193,21.6353,14.2588,81.740,,22.1544,18.2066,0.0323,,,,1.7534,,38.9956,38.341,26.9102,,26.9112,,0.6243,85.5505,,7.575,,2.4756E+01,,1.0000E-12,,6.2539,6.2542,1.0506,,7.066,27.254,,,,,,,,,,,,
CalCOFI,2007SR,013,14,2007_013u,15-Jul-2020 13:19:08,15-Jul-2020 05:19:08,31.18044,-120.91952,093.3 080.0,093.3,080.0,477.000,480.873,,6.3060,,6.3066,,6.3063,34.2280,,34.2282,34.2290,,34.2306,34.2294,0.4883,,0.4925,0.4645,1.8821,,0.5519,0.5003,0.4824,21.236,21.6802,14.3032,81.852,,22.4300,18.3666,0.0322,,,,1.7526,,38.9732,38.319,26.9089,,26.9097,,0.6243,85.5505,,7.575,,2.4756E+01,,1.0000E-12,,6.2632,6.2637,1.0506,,7.082,27.297,,,,,,,,,,,,
CalCOFI,2007SR,013,14,2007_013u,15-Jul-2020 13:19:09,15-Jul-2020 05:19:09,31.18044,-120.91953,093.3 080.0,093.3,080.0,476.000,479.863,,6.3102,,6.3103,,6.3103,34.2277,,34.2279,34.2287,,34.2303,34.2291,0.4883,,0.4925,0.4645,1.8805,,0.5481,0.4961,0.4803,21.238,21.6822,14.3053,81.781,,22.2553,18.2803,0.0313,,,,1.7517,,38.9479,38.294,26.9082,,26.9089,,0.6243,85.5505,,7.575,,2.4756E+01,,1.0000E-12,,6.2674,6.2675,1.0506,,7.083,27.276,,,,,,,,,,,,
CalCOFI,2007SR,013,14,2007_013u,15-Jul-2020 13:19:10,15-Jul-2020 05:19:10,31.18044,-120.91954,093.3 080.0,093.3,080.0,475.000,478.854,,6.3143,,6.3149,,6.3146,34.2279,,34.2281,34.2291,,34.2307,34.2294,0.4950,,0.4995,0.4716,1.8807,,0.5486,0.4966,0.4841,21.525,21.9818,14.6019,81.791,,22.2799,18.4409,0.0318,,,,1.7510,,38.9282,38.275,26.9078,,26.9087,,0.6243,85.5505,,7.575,,2.4756E+01,,1.0000E-12,,6.2716,6.2722,1.0506,,7.180,27.282,,,,,,,,,,,,
CalCOFI,2007SR,013,14,2007_013u,15-Jul-2020 13:19:11,15-Jul-2020 05:19:11,31.18044,-120.91954,093.3 080.0,093.3,080.0,474.000,477.845,,6.3319,,6.3322,,6.3321,34.2285,,34.2287,34.2297,,34.2313,34.2300,0.4950,,0.4995,0.4716,1.8797,,0.5462,0.4939,0.4828,21.529,21.9860,14.6060,81.749,,22.1766,18.3913,0.0317,,,,1.7500,,38.9002,38.247,26.9060,,26.9069,,0.6243,85.5505,,7.575,,2.4756E+01,,1.0000E-12,,6.2892,6.2895,1.0506,,7.184,27.279,,,,,,,,,,,,
CalCOFI,2007SR,013,14,2007_013u,15-Jul-2020 13:19:12,15-Jul-2020 05:19:12,31.18044,-120.91953,093.3 080.0,093.3,080.0,473.000,476.836,,6.3487,,6.3497,,6.3492,34.2279,,34.2281,34.2293,,34.2309,34.2295,0.4990,,0.5037,0.4758,1.8804,,0.5479,0.4958,0.4858,21.701,22.1656,14.7838,81.779,,22.2504,18.5171,0.0318,,,,1.7482,,38.8496,38.198,26.9033,,26.9043,,0.6245,85.5456,,7.575,,2.4756E+01,,1.0000E-12,,6.3061,6.3070,1.0506,,7.244,27.300,,,,,,,,,,,,
CalCOFI,2007SR,013,14,2007_013u,15-Jul-2020 13:19:14,15-Jul-2020 05:19:14,31.18044,-120.91952,093.3 080.0,093.3,080.0,472.000,475.826,,6.3592,,6.3580,,6.3586,34.2274,,34.2276,34.2288,,34.2304,34.2290,0.5028,,0.5077,0.4798,1.8885,,0.5672,0.5174,0.4986,21.866,22.3378,14.9543,82.131,,23.1165,19.0354,0.0322,,,,1.7461,,38.7906,38.140,26.9016,,26.9028,,0.6243,85.5506,,7.575,,2.4756E+01,,1.0000E-12,,6.3166,6.3154,1.0506,,7.301,27.423,,,,,,,,,,,,
CalCOFI,2007SR,013,14,2007_013u,15-Jul-2020 13:19:15,15-Jul-2020 05:19:15,31.18044,-120.91952,093.3 080.0,093.3,080.0,471.000,474.817,,6.3612,,6.3648,,6.3630,34.2275,,34.2277,34.2284,,34.2300,34.2289,0.5077,,0.5128,0.4850,1.8762,,0.5379,0.4846,0.4848,22.078,22.5591,15.1734,81.596,,21.8001,18.4868,0.0314,,,,1.7444,,38.7429,38.094,26.9013,,26.9016,,0.6243,85.5505,,7.575,,2.4756E+01,,1.0000E-12,,6.3187,6.3223,1.0506,,7.372,27.248,,,,,,,,,,,,
CalCOFI,2007SR,013,14,2007_013u,15-Jul-2020 13:19:16,15-Jul-2020 05:19:16,31.18044,-120.91952,093.3 080.0,093.3,080.0,470.000,473.808,,6.3716,,6.3720,,6.3718,34.2264,,34.2266,34.2274,,34.2290,34.2278,0.5118,,0.5171,0.4894,1.8750,,0.5350,0.4814,0.4854,22.259,22.7481,15.3605,81.546,,21.6771,18.5188,0.0307,,,,1.7434,,38.7148,38.066,26.8992,,26.8999,,0.6243,85.5505,,7.575,,2.4756E+01,,1.0000E-12,,6.3292,6.3295,1.0506,,7.434,27.236,,,,,,,,,,,,
CalCOFI,2007SR,013,14,2007_013u,15-Jul-2020 13:19:17,15-Jul-2020 05:19:17,31.18044,-120.91952,093.3 080.0,093.3,080.0,469.000,472.799,,6.3805,,6.3807,,6.3806,34.2253,,34.2255,34.2264,,34.2280,34.2268,0.5167,,0.5222,0.4946,1.8738,,0.5321,0.4782,0.4864,22.472,22.9704,15.5806,81.493,,21.5467,18.5637,0.0321,,,,1.7425,,38.6896,38.042,26.8971,,26.8980,,0.6243,85.5505,,7.575,,2.4756E+01,,1.0000E-12,,6.3381,6.3383,1.0506,,7.507,27.223,,,,,,,,,,,,
CalCOFI,2007SR,013,14,2007_013u,15-Jul-2020 13:19:17,15-Jul-2020 05:19:17,31.18044,-120.91952,093.3 080.0,093.3,080.0,468.000,471.789,,6.3849,,6.3849,,6.3849,34.2241,,34.2243,34.2250,,34.2266,34.2255,0.5212,,0.5269,0.4993,1.8853,,0.5596,0.5089,0.5041,22.666,23.1729,15.7811,81.992,,22.7745,19.2778,0.0313,,,,1.7417,,38.6671,38.020,26.8956,,26.8963,,0.6243,85.5505,,7.576,,2.4756E+01,,1.0000E-12,,6.3426,6.3426,1.0506,,7.572,27.392,,,,,,,,,,,,
CalCOFI,2007SR,013,14,2007_013u,15-Jul-2020 13:19:18,15-Jul-2020 05:19:18,31.18044,-120.91952,093.3 080.0,093.3,080.0,467.000,470.780,,6.3886,,6.3893,,6.3890,34.2234,,34.2236,34.2244,,34.2260,34.2248,0.5205,,0.5262,0.4986,1.8851,,0.5591,0.5083,0.5035,22.638,23.1437,15.7521,81.982,,22.7499,19.2510,0.0316,,,,1.7410,,38.6474,38.001,26.8945,,26.8953,,0.6243,85.5505,,7.576,,2.4756E+01,,1.0000E-12,,6.3464,6.3471,1.0506,,7.564,27.392,,,,,,,,,,,,
CalCOFI,2007SR,013,14,2007_013u,15-Jul-2020 13:19:19,15-Jul-2020 05:19:19,31.18044,-120.91954,093.3 080.0,093.3,080.0,466.000,469.771,,6.4073,,6.4091,,6.4082,34.2227,,34.2229,34.2240,,34.2256,34.2243,0.5243,,0.5301,0.5026,1.8769,,0.5395,0.4865,0.4946,22.800,23.3128,15.9196,81.628,,21.8788,18.8992,0.0317,,,,1.7403,,38.6278,37.981,26.8916,,26.8923,,0.6243,85.5505,,7.576,,2.4756E+01,,1.0000E-12,,6.3651,6.3669,1.0506,,7.621,27.286,,,,,,,,,,,,
CalCOFI,2007SR,013,14,2007_013u,15-Jul-2020 13:19:20,15-Jul-2020 05:19:20,31.18044,-120.91953,093.3 080.0,093.3,080.0,465.000,468.762,,6.4120,,6.4119,,6.4120,34.2215,,34.2217,34.2222,,34.2238,34.2228,0.5318,,0.5380,0.5105,1.8805,,0.5481,0.4961,0.5033,23.126,23.6531,16.2565,81.784,,22.2627,19.2596,0.0316,,,,1.7397,,38.6109,37.965,26.8900,,26.8905,,0.6243,85.5505,,7.578,,2.4756E+01,,1.0000E-12,,6.3698,6.3698,1.0506,,7.731,27.340,,,,,,,,,,,,
CalCOFI,2007SR,013,14,2007_013u,15-Jul-2020 13:19:22,15-Jul-2020 05:19:22,31.18044,-120.91952,093.3 080.0,093.3,080.0,464.000,467.752,,6.4181,,6.4174,,6.4178,34.2194,,34.2196,34.2208,,34.2224,34.2210,0.5385,,0.5450,0.5176,1.8785,,0.5433,0.4908,0.5042,23.418,23.9580,16.5583,81.699,,22.0535,19.3059,0.0318,,,,1.7386,,38.5800,37.935,26.8875,,26.8887,,0.6243,85.5505,,7.578,,2.4756E+01,,1.0000E-12,,6.3761,6.3754,1.0506,,7.829,27.314,,,,,,,,,,,,